DW9499 Weather Reports


time (UTC)temp
C
wind
direction
speed
KPH
gust
KPH
rain 1hr
cm
rain 24hr
cm
rain mn
cm
humidity
%
barometer
mb
20260505070026 11 51 0.0 24.1 0.00 0.00 0.00 59 1006.3
20260505064523 11 43 17.7 33.8 0.00 0.00 0.00 57 1006.2
20260505063020 11 41 22.5 30.6 0.00 0.00 0.00 56 1006.1
20260505061524 12 39 24.1 33.8 0.00 0.00 0.00 54 1005.8
20260505060014 12 51 29.0 35.4 0.00 0.00 0.00 53 1005.6
20260505054510 13 50 27.4 35.4 0.00 0.00 0.00 54 1005.3
20260505053009 13 53 22.5 33.8 0.00 0.00 0.00 54 1005.0
20260505051511 14 48 27.4 33.8 0.00 0.00 0.00 52 1004.7
20260505041556 15 47 22.5 32.2 0.00 0.00 0.00 55 1004.1
20260505040057 15 44 20.9 33.8 0.00 0.00 0.00 55 1004.0
20260505034555 16 31 25.7 35.4 0.00 0.00 0.00 58 1003.5
20260505033054 16 53 22.5 33.8 0.00 0.00 0.00 59 1003.1
20260505031555 16 39 22.5 32.2 0.00 0.00 0.00 59 1002.7
20260505030053 16 44 22.5 32.2 0.00 0.00 0.00 56 1002.4
20260505024556 17 46 14.5 30.6 0.00 0.00 0.00 53 1002.1
20260505023055 18 44 20.9 33.8 0.00 0.00 0.00 48 1001.3
20260505021552 20 51 0.0 17.7 0.00 0.00 0.00 44 1000.7
20260505020051 20 48 0.0 14.5 0.00 0.00 0.00 43 1000.2
20260505014555 20 60 0.0 0.0 0.00 0.00 0.00 41 999.8
20260505013048 21 69 0.0 0.0 0.00 0.00 0.00 39 999.4
20260505011551 22 61 0.0 0.0 0.00 0.00 0.00 39 999.4
20260505010108 24 67 0.0 0.0 0.00 0.00 0.00 34 999.3
20260505004548 25 68 0.0 0.0 0.00 0.00 0.00 33 999.3
20260505003048 25 62 0.0 0.0 0.00 0.00 0.00 34 999.5
20260505001544 26 133 0.0 0.0 0.00 0.00 0.00 27 999.5
20260505000047 27 72 0.0 0.0 0.00 0.00 0.00 26 999.7
20260504234541 27 71 0.0 0.0 0.00 0.00 0.00 22 999.9
20260504233040 27 66 0.0 0.0 0.00 0.00 0.00 23 999.9
20260504231544 27 69 0.0 0.0 0.00 0.00 0.00 23 1000.1
20260504230044 27 101 0.0 0.0 0.00 0.00 0.00 23 1000.1
20260504224538 27 118 0.0 1.6 0.00 0.00 0.00 25 1000.2
20260504223036 27 199 0.0 0.0 0.00 0.00 0.00 24 1000.2
20260504221548 26 130 0.0 0.0 0.00 0.00 0.00 25 1000.4
20260504220035 26 77 0.0 0.0 0.00 0.00 0.00 24 1000.5
20260504214534 26 195 0.0 0.0 0.00 0.00 0.00 25 1000.5
20260504213042 26 212 0.0 1.6 0.00 0.00 0.00 24 1000.8
20260504211535 26 148 3.2 11.3 0.00 0.00 0.00 25 1000.9
20260504210029 26 138 0.0 3.2 0.00 0.00 0.00 24 1001.2
20260504204530 26 240 0.0 4.8 0.00 0.00 0.00 25 1001.3
20260504203040 26 49 0.0 3.2 0.00 0.00 0.00 25 1001.1
20260504201527 26 129 9.7 24.1 0.00 0.00 0.00 25 1001.4
20260504200024 26 146 0.0 3.2 0.00 0.00 0.00 27 1001.6
20260504194531 26 84 0.0 6.4 0.00 0.00 0.00 28 1001.5
20260504193024 27 78 0.0 8.0 0.00 0.00 0.00 27 1001.5
20260504191532 27 141 0.0 6.4 0.00 0.00 0.00 25 1001.8
20260504190021 27 110 0.0 1.6 0.00 0.00 0.00 24 1001.8
20260504184520 27 160 0.0 6.4 0.00 0.00 0.00 24 1001.9
20260504183016 27 143 0.0 4.8 0.00 0.00 0.00 26 1002.1
20260504181517 27 22 0.0 0.0 0.00 0.00 0.00 28 1002.3
20260504180015 26 27 0.0 1.6 0.00 0.00 0.00 29 1002.4
20260504174508 26 27 0.0 0.0 0.00 0.00 0.00 29 1002.6
20260504173005 26 48 0.0 0.0 0.00 0.00 0.00 29 1002.7
20260504171503 25 13 0.0 0.0 0.00 0.00 0.00 31 1002.9
20260504081550 7 239 0.0 1.6 0.00 0.00 0.00 81 1003.0